Year,Month,Day,Hour,Minute,Value (Times are PST for temperature in C)
2015,06,29,00,00,20.10
2015,06,29,00,01,20.10
2015,06,29,00,02,20.10
2015,06,29,00,03,20.10
2015,06,29,00,04,20.10
2015,06,29,00,05,20.10
2015,06,29,00,06,20.10
2015,06,29,00,07,20.00
2015,06,29,00,08,20.00
2015,06,29,00,09,20.00
2015,06,29,00,10,20.00
2015,06,29,00,11,20.00
2015,06,29,00,12,20.00
2015,06,29,00,13,20.00
2015,06,29,00,14,19.90
2015,06,29,00,15,19.90
2015,06,29,00,16,19.90
2015,06,29,00,17,19.90
2015,06,29,00,18,19.90
2015,06,29,00,19,19.90
2015,06,29,00,20,19.90
2015,06,29,00,21,19.90
2015,06,29,00,22,19.90
2015,06,29,00,23,19.80
2015,06,29,00,24,19.80
2015,06,29,00,25,19.80
2015,06,29,00,26,19.80
2015,06,29,00,27,19.80
2015,06,29,00,28,19.80
2015,06,29,00,29,19.80
2015,06,29,00,30,19.80
2015,06,29,00,31,19.80
2015,06,29,00,32,19.80
2015,06,29,00,33,19.80
2015,06,29,00,34,19.70
2015,06,29,00,35,19.70
2015,06,29,00,36,19.70
2015,06,29,00,37,19.70
2015,06,29,00,38,19.70
2015,06,29,00,39,19.70
2015,06,29,00,40,19.70
2015,06,29,00,41,19.70
2015,06,29,00,42,19.60
2015,06,29,00,43,19.60
2015,06,29,00,44,19.60
2015,06,29,00,45,19.50
2015,06,29,00,46,19.50
2015,06,29,00,47,19.50
2015,06,29,00,48,19.40
2015,06,29,00,49,19.40
2015,06,29,00,50,19.40
2015,06,29,00,51,19.40
2015,06,29,00,52,19.30
2015,06,29,00,53,19.30
2015,06,29,00,54,19.30
2015,06,29,00,55,19.30
2015,06,29,00,56,19.30
2015,06,29,00,57,19.20
2015,06,29,00,58,19.20
2015,06,29,00,59,19.20
2015,06,29,01,00,19.10
2015,06,29,01,01,19.10
2015,06,29,01,02,19.10
2015,06,29,01,03,19.10
2015,06,29,01,04,19.00
2015,06,29,01,05,19.00
2015,06,29,01,06,19.00
2015,06,29,01,07,18.90
2015,06,29,01,08,18.90
2015,06,29,01,09,18.90
2015,06,29,01,10,18.90
2015,06,29,01,11,18.90
2015,06,29,01,12,18.90
2015,06,29,01,13,18.90
2015,06,29,01,14,18.90
2015,06,29,01,15,18.90
2015,06,29,01,16,18.90
2015,06,29,01,17,18.90
2015,06,29,01,18,18.90
2015,06,29,01,19,18.90
2015,06,29,01,20,18.90
2015,06,29,01,21,18.90
2015,06,29,01,22,18.90
2015,06,29,01,23,18.90
2015,06,29,01,24,18.90
2015,06,29,01,25,18.90
2015,06,29,01,26,18.90
2015,06,29,01,27,18.90
2015,06,29,01,28,18.90
2015,06,29,01,29,19.00
2015,06,29,01,30,19.00
2015,06,29,01,31,19.00
2015,06,29,01,32,19.00
2015,06,29,01,33,19.00
2015,06,29,01,34,19.00
2015,06,29,01,35,19.00
2015,06,29,01,36,19.00
2015,06,29,01,37,19.10
2015,06,29,01,38,19.10
2015,06,29,01,39,19.10
2015,06,29,01,40,19.10
2015,06,29,01,41,19.10
2015,06,29,01,42,19.10
2015,06,29,01,43,19.20
2015,06,29,01,44,19.20
2015,06,29,01,45,19.20
2015,06,29,01,46,19.20
2015,06,29,01,47,19.20
2015,06,29,01,48,19.20
2015,06,29,01,49,19.20
2015,06,29,01,50,19.20
2015,06,29,01,51,19.30
2015,06,29,01,52,19.30
2015,06,29,01,53,19.30
2015,06,29,01,54,19.30
2015,06,29,01,55,19.30
2015,06,29,01,56,19.30
2015,06,29,01,57,19.40
2015,06,29,01,58,19.40
2015,06,29,01,59,19.40
2015,06,29,02,00,19.40
2015,06,29,02,01,19.40
2015,06,29,02,02,19.40
2015,06,29,02,03,19.50
2015,06,29,02,04,19.50
2015,06,29,02,05,19.50
2015,06,29,02,06,19.50
2015,06,29,02,07,19.60
2015,06,29,02,08,19.60
2015,06,29,02,09,19.50
2015,06,29,02,10,19.50
2015,06,29,02,11,19.50
2015,06,29,02,12,19.50
2015,06,29,02,13,19.60
2015,06,29,02,14,19.60
2015,06,29,02,15,19.50
2015,06,29,02,16,19.60
2015,06,29,02,17,19.50
2015,06,29,02,18,19.50
2015,06,29,02,19,19.50
2015,06,29,02,20,19.50
2015,06,29,02,21,19.50
2015,06,29,02,22,19.50
2015,06,29,02,23,19.50
2015,06,29,02,24,19.50
2015,06,29,02,25,19.50
2015,06,29,02,26,19.50
2015,06,29,02,27,19.50
2015,06,29,02,28,19.50
2015,06,29,02,29,19.50
2015,06,29,02,30,19.50
2015,06,29,02,31,19.50
2015,06,29,02,32,19.40
2015,06,29,02,33,19.50
2015,06,29,02,34,19.40
2015,06,29,02,35,19.40
2015,06,29,02,36,19.40
2015,06,29,02,37,19.40
2015,06,29,02,38,19.40
2015,06,29,02,39,19.40
2015,06,29,02,40,19.30
2015,06,29,02,41,19.30
2015,06,29,02,42,19.30
2015,06,29,02,43,19.30
2015,06,29,02,44,19.30
2015,06,29,02,45,19.30
2015,06,29,02,46,19.30
2015,06,29,02,47,19.30
2015,06,29,02,48,19.30
2015,06,29,02,49,19.30
2015,06,29,02,50,19.30
2015,06,29,02,51,19.30
2015,06,29,02,52,19.30
2015,06,29,02,53,19.30
2015,06,29,02,54,19.30
2015,06,29,02,55,19.30
2015,06,29,02,56,19.30
2015,06,29,02,57,19.30
2015,06,29,02,58,19.30
2015,06,29,02,59,19.30
2015,06,29,03,00,19.30
2015,06,29,03,01,19.30
2015,06,29,03,02,19.30
2015,06,29,03,03,19.30
2015,06,29,03,04,19.30
2015,06,29,03,05,19.40
2015,06,29,03,06,19.40
2015,06,29,03,07,19.40
2015,06,29,03,08,19.40
2015,06,29,03,09,19.40
2015,06,29,03,10,19.40
2015,06,29,03,11,19.40
2015,06,29,03,12,19.30
2015,06,29,03,13,19.30
2015,06,29,03,14,19.30
2015,06,29,03,15,19.30
2015,06,29,03,16,19.30
2015,06,29,03,17,19.30
2015,06,29,03,18,19.30
2015,06,29,03,19,19.30
2015,06,29,03,20,19.30
2015,06,29,03,21,19.30
2015,06,29,03,22,19.30
2015,06,29,03,23,19.30
2015,06,29,03,24,19.20
2015,06,29,03,25,19.20
2015,06,29,03,26,19.20
2015,06,29,03,27,19.20
2015,06,29,03,28,19.10
2015,06,29,03,29,19.10
2015,06,29,03,30,19.10
2015,06,29,03,31,19.10
2015,06,29,03,32,19.00
2015,06,29,03,33,19.00
2015,06,29,03,34,19.00
2015,06,29,03,35,19.00
2015,06,29,03,36,18.90
2015,06,29,03,37,18.90
2015,06,29,03,38,18.90
2015,06,29,03,39,18.90
2015,06,29,03,40,18.90
2015,06,29,03,41,18.80
2015,06,29,03,42,18.80
2015,06,29,03,43,18.80
2015,06,29,03,44,18.80
2015,06,29,03,45,18.80
2015,06,29,03,46,18.80
2015,06,29,03,47,18.80
2015,06,29,03,48,18.70
2015,06,29,03,49,18.70
2015,06,29,03,50,18.70
2015,06,29,03,51,18.70
2015,06,29,03,52,18.70
2015,06,29,03,53,18.70
2015,06,29,03,54,18.60
2015,06,29,03,55,18.60
2015,06,29,03,56,18.60
2015,06,29,03,57,18.60
2015,06,29,03,58,18.50
2015,06,29,03,59,18.50
2015,06,29,04,00,18.50
2015,06,29,04,01,18.40
2015,06,29,04,02,18.40
2015,06,29,04,03,18.40
2015,06,29,04,04,18.30
2015,06,29,04,05,18.30
2015,06,29,04,06,18.30
2015,06,29,04,07,18.30
2015,06,29,04,08,18.20
2015,06,29,04,09,18.20
2015,06,29,04,10,18.20
2015,06,29,04,11,18.20
2015,06,29,04,12,18.10
2015,06,29,04,13,18.10
2015,06,29,04,14,18.10
2015,06,29,04,15,18.00
2015,06,29,04,16,18.00
2015,06,29,04,17,18.00
2015,06,29,04,18,18.00
2015,06,29,04,19,17.90
2015,06,29,04,20,17.90
2015,06,29,04,21,17.90
2015,06,29,04,22,17.90
2015,06,29,04,23,17.80
2015,06,29,04,24,17.80
2015,06,29,04,25,17.80
2015,06,29,04,26,17.80
2015,06,29,04,27,17.80
2015,06,29,04,28,17.80
2015,06,29,04,29,17.80
2015,06,29,04,30,17.80
2015,06,29,04,31,17.70
2015,06,29,04,32,17.70
2015,06,29,04,33,17.70
2015,06,29,04,34,17.70
2015,06,29,04,35,17.70
2015,06,29,04,36,17.70
2015,06,29,04,37,17.70
2015,06,29,04,38,17.60
2015,06,29,04,39,17.60
2015,06,29,04,40,17.60
2015,06,29,04,41,17.50
2015,06,29,04,42,17.50
2015,06,29,04,43,17.40
2015,06,29,04,44,17.40
2015,06,29,04,45,17.40
2015,06,29,04,46,17.40
2015,06,29,04,47,17.40
2015,06,29,04,48,17.40
2015,06,29,04,49,17.40
2015,06,29,04,50,17.30
2015,06,29,04,51,17.30
2015,06,29,04,52,17.30
2015,06,29,04,53,17.30
2015,06,29,04,54,17.30
2015,06,29,04,55,17.30
2015,06,29,04,56,17.30
2015,06,29,04,57,17.20
2015,06,29,04,58,17.20
2015,06,29,04,59,17.20
2015,06,29,05,00,17.20
2015,06,29,05,01,17.20
2015,06,29,05,02,17.10
2015,06,29,05,03,17.10
2015,06,29,05,04,17.10
2015,06,29,05,05,17.10
2015,06,29,05,06,17.10
2015,06,29,05,07,17.10
2015,06,29,05,08,17.00
2015,06,29,05,09,17.00
2015,06,29,05,10,17.00
2015,06,29,05,11,16.90
2015,06,29,05,12,16.90
2015,06,29,05,13,16.90
2015,06,29,05,14,16.90
2015,06,29,05,15,16.90
2015,06,29,05,16,16.80
2015,06,29,05,17,16.80
2015,06,29,05,18,16.80
2015,06,29,05,19,16.80
2015,06,29,05,20,16.80
2015,06,29,05,21,16.80
2015,06,29,05,22,16.80
2015,06,29,05,23,16.80
2015,06,29,05,24,16.70
2015,06,29,05,25,16.70
2015,06,29,05,26,16.70
2015,06,29,05,27,16.70
2015,06,29,05,28,16.70
2015,06,29,05,29,16.70
2015,06,29,05,30,16.70
2015,06,29,05,31,16.70
2015,06,29,05,32,16.60
2015,06,29,05,33,16.60
2015,06,29,05,34,16.60
2015,06,29,05,35,16.60
2015,06,29,05,36,16.50
2015,06,29,05,37,16.50
2015,06,29,05,38,16.50
2015,06,29,05,39,16.50
2015,06,29,05,40,16.40
2015,06,29,05,41,16.40
2015,06,29,05,42,16.40
2015,06,29,05,43,16.40
2015,06,29,05,44,16.40
2015,06,29,05,45,16.40
2015,06,29,05,46,16.30
2015,06,29,05,47,16.30
2015,06,29,05,48,16.30
2015,06,29,05,49,16.30
2015,06,29,05,50,16.30
2015,06,29,05,51,16.30
2015,06,29,05,52,16.30
2015,06,29,05,53,16.30
2015,06,29,05,54,16.30
2015,06,29,05,55,16.30
2015,06,29,05,56,16.30
2015,06,29,05,57,16.30
2015,06,29,05,58,16.30
2015,06,29,05,59,16.30
2015,06,29,06,00,16.30
2015,06,29,06,01,16.30
2015,06,29,06,02,16.30
2015,06,29,06,03,16.30
2015,06,29,06,04,16.30
2015,06,29,06,05,16.30
2015,06,29,06,06,16.30
2015,06,29,06,07,16.30
2015,06,29,06,08,16.30
2015,06,29,06,09,16.30
2015,06,29,06,10,16.30
2015,06,29,06,11,16.30
2015,06,29,06,12,16.30
2015,06,29,06,13,16.30
2015,06,29,06,14,16.40
2015,06,29,06,15,16.40
2015,06,29,06,16,16.40
2015,06,29,06,17,16.40
2015,06,29,06,18,16.50
2015,06,29,06,19,16.50
2015,06,29,06,20,16.60
2015,06,29,06,21,16.60
2015,06,29,06,22,16.70
2015,06,29,06,23,16.70
2015,06,29,06,24,16.70
2015,06,29,06,25,16.80
2015,06,29,06,26,16.80
2015,06,29,06,27,16.80
2015,06,29,06,28,16.90
2015,06,29,06,29,16.90
2015,06,29,06,30,16.90
2015,06,29,06,31,17.00
2015,06,29,06,32,17.10
2015,06,29,06,33,17.10
2015,06,29,06,34,17.20
2015,06,29,06,35,17.30
2015,06,29,06,36,17.40
2015,06,29,06,37,17.50
2015,06,29,06,38,17.50
2015,06,29,06,39,17.60
2015,06,29,06,40,17.70
2015,06,29,06,41,17.70
2015,06,29,06,42,17.80
2015,06,29,06,43,17.90
2015,06,29,06,44,17.90
2015,06,29,06,45,18.00
2015,06,29,06,46,18.10
2015,06,29,06,47,18.20
2015,06,29,06,48,18.30
2015,06,29,06,49,18.40
2015,06,29,06,50,18.50
2015,06,29,06,51,18.70
2015,06,29,06,52,18.70
2015,06,29,06,53,18.80
2015,06,29,06,54,18.90
2015,06,29,06,55,19.00
2015,06,29,06,56,19.10
2015,06,29,06,57,19.10
2015,06,29,06,58,19.10
2015,06,29,06,59,19.20
2015,06,29,07,00,19.30
2015,06,29,07,01,19.40
2015,06,29,07,02,19.50
2015,06,29,07,03,19.70
2015,06,29,07,04,19.80
2015,06,29,07,05,19.90
2015,06,29,07,06,20.00
2015,06,29,07,07,20.00
2015,06,29,07,08,20.10
2015,06,29,07,09,20.30
2015,06,29,07,10,20.30
2015,06,29,07,11,20.40
2015,06,29,07,12,20.50
2015,06,29,07,13,20.60
2015,06,29,07,14,20.60
2015,06,29,07,15,20.70
2015,06,29,07,16,20.80
2015,06,29,07,17,20.80
2015,06,29,07,18,20.80
2015,06,29,07,19,20.80
2015,06,29,07,20,20.90
2015,06,29,07,21,20.90
2015,06,29,07,22,20.90
2015,06,29,07,23,21.00
2015,06,29,07,24,21.00
2015,06,29,07,25,21.10
2015,06,29,07,26,21.20
2015,06,29,07,27,21.20
2015,06,29,07,28,21.30
2015,06,29,07,29,21.40
2015,06,29,07,30,21.50
2015,06,29,07,31,21.50
2015,06,29,07,32,21.60
2015,06,29,07,33,21.60
2015,06,29,07,34,21.70
2015,06,29,07,35,21.70
2015,06,29,07,36,21.70
2015,06,29,07,37,21.80
2015,06,29,07,38,21.80
2015,06,29,07,39,21.80
2015,06,29,07,40,21.90
2015,06,29,07,41,21.90
2015,06,29,07,42,21.80
2015,06,29,07,43,21.80
2015,06,29,07,44,21.80
2015,06,29,07,45,21.80
2015,06,29,07,46,21.80
2015,06,29,07,47,21.80
2015,06,29,07,48,21.80
2015,06,29,07,49,21.90
2015,06,29,07,50,21.90
2015,06,29,07,51,21.90
2015,06,29,07,52,21.90
2015,06,29,07,53,21.90
2015,06,29,07,54,21.80
2015,06,29,07,55,21.80
2015,06,29,07,56,21.80
2015,06,29,07,57,21.70
2015,06,29,07,58,21.70
2015,06,29,07,59,21.60
2015,06,29,08,00,21.60
2015,06,29,08,01,21.50
2015,06,29,08,02,21.50
2015,06,29,08,03,21.40
2015,06,29,08,04,21.40
2015,06,29,08,05,21.40
2015,06,29,08,06,21.40
2015,06,29,08,07,21.40
2015,06,29,08,08,21.40
2015,06,29,08,09,21.40
2015,06,29,08,10,21.50
2015,06,29,08,11,21.50
2015,06,29,08,12,21.50
2015,06,29,08,13,21.60
2015,06,29,08,14,21.60
2015,06,29,08,15,21.70
2015,06,29,08,16,21.80
2015,06,29,08,17,21.90
2015,06,29,08,18,21.90
2015,06,29,08,19,22.00
2015,06,29,08,20,22.00
2015,06,29,08,21,22.10
2015,06,29,08,22,22.10
2015,06,29,08,23,22.20
2015,06,29,08,24,22.20
2015,06,29,08,25,22.30
2015,06,29,08,26,22.30
2015,06,29,08,27,22.30
2015,06,29,08,28,22.40
2015,06,29,08,29,22.40
2015,06,29,08,30,22.50
2015,06,29,08,31,22.50
2015,06,29,08,32,22.60
2015,06,29,08,33,22.70
2015,06,29,08,34,22.80
2015,06,29,08,35,22.80
2015,06,29,08,36,22.90
2015,06,29,08,37,22.90
2015,06,29,08,38,22.90
2015,06,29,08,39,22.90
2015,06,29,08,40,22.90
2015,06,29,08,41,22.90
2015,06,29,08,42,22.90
2015,06,29,08,43,23.00
2015,06,29,08,44,23.10
2015,06,29,08,45,23.10
2015,06,29,08,46,23.20
2015,06,29,08,47,23.30
2015,06,29,08,48,23.30
2015,06,29,08,49,23.30
2015,06,29,08,50,23.30
2015,06,29,08,51,23.20
2015,06,29,08,52,23.20
2015,06,29,08,53,23.20
2015,06,29,08,54,23.20
2015,06,29,08,55,23.20
2015,06,29,08,56,23.30
2015,06,29,08,57,23.30
2015,06,29,08,58,23.40
2015,06,29,08,59,23.40
2015,06,29,09,00,23.40
2015,06,29,09,01,23.40
2015,06,29,09,02,23.50
2015,06,29,09,03,23.50
2015,06,29,09,04,23.70
2015,06,29,09,05,23.80
2015,06,29,09,06,23.80
2015,06,29,09,07,23.80
2015,06,29,09,08,23.80
2015,06,29,09,09,23.90
2015,06,29,09,10,23.90
2015,06,29,09,11,23.90
2015,06,29,09,12,24.00
2015,06,29,09,13,24.00
2015,06,29,09,14,24.00
2015,06,29,09,15,23.90
2015,06,29,09,16,24.00
2015,06,29,09,17,24.00
2015,06,29,09,18,24.00
2015,06,29,09,19,24.00
2015,06,29,09,20,24.00
2015,06,29,09,21,23.90
2015,06,29,09,22,23.90
2015,06,29,09,23,23.90
2015,06,29,09,24,23.80
2015,06,29,09,25,23.80
2015,06,29,09,26,23.80
2015,06,29,09,27,23.80
2015,06,29,09,28,23.70
2015,06,29,09,29,23.70
2015,06,29,09,30,23.70
2015,06,29,09,31,23.70
2015,06,29,09,32,23.60
2015,06,29,09,33,23.60
2015,06,29,09,34,23.60
2015,06,29,09,35,23.60
2015,06,29,09,36,23.60
2015,06,29,09,37,23.60
2015,06,29,09,38,23.60
2015,06,29,09,39,23.50
2015,06,29,09,40,23.50
2015,06,29,09,41,23.50
2015,06,29,09,42,23.40
2015,06,29,09,43,23.40
2015,06,29,09,44,23.40
2015,06,29,09,45,23.40
2015,06,29,09,46,23.50
2015,06,29,09,47,23.50
2015,06,29,09,48,23.50
2015,06,29,09,49,23.50
2015,06,29,09,50,23.50
2015,06,29,09,51,23.40
2015,06,29,09,52,23.40
2015,06,29,09,53,23.30
2015,06,29,09,54,23.30
2015,06,29,09,55,23.20
2015,06,29,09,56,23.20
2015,06,29,09,57,23.10
2015,06,29,09,58,23.10
2015,06,29,09,59,23.10
2015,06,29,10,00,23.10
2015,06,29,10,01,23.10
2015,06,29,10,02,23.10
2015,06,29,10,03,23.10
2015,06,29,10,04,23.10
2015,06,29,10,05,23.00
2015,06,29,10,06,23.00
2015,06,29,10,07,23.00
2015,06,29,10,08,22.90
2015,06,29,10,09,22.90
2015,06,29,10,10,22.90
2015,06,29,10,11,22.80
2015,06,29,10,12,22.80
2015,06,29,10,13,22.70
2015,06,29,10,14,22.70
2015,06,29,10,15,22.70
2015,06,29,10,16,22.70
2015,06,29,10,17,22.70
2015,06,29,10,18,22.60
2015,06,29,10,19,22.60
2015,06,29,10,20,22.60
2015,06,29,10,21,22.60
2015,06,29,10,22,22.60
2015,06,29,10,23,22.60
2015,06,29,10,24,22.60
2015,06,29,10,25,22.60
2015,06,29,10,26,22.60
2015,06,29,10,27,22.70
2015,06,29,10,28,22.80
2015,06,29,10,29,22.90
2015,06,29,10,30,23.10
2015,06,29,10,31,23.20
2015,06,29,10,32,23.30
2015,06,29,10,33,23.50
2015,06,29,10,34,23.60
2015,06,29,10,35,23.70
2015,06,29,10,36,23.80
2015,06,29,10,37,23.80
2015,06,29,10,38,23.90
2015,06,29,10,39,24.00
2015,06,29,10,40,24.10
2015,06,29,10,41,24.10
2015,06,29,10,42,24.20
2015,06,29,10,43,24.30
2015,06,29,10,44,24.30
2015,06,29,10,45,24.30
2015,06,29,10,46,24.30
2015,06,29,10,47,24.20
2015,06,29,10,48,24.10
2015,06,29,10,49,23.90
2015,06,29,10,50,23.80
2015,06,29,10,51,23.70
2015,06,29,10,52,23.70
2015,06,29,10,53,23.70
2015,06,29,10,54,23.70
2015,06,29,10,55,23.60
2015,06,29,10,56,23.60
2015,06,29,10,57,23.60
2015,06,29,10,58,23.60
2015,06,29,10,59,23.60
2015,06,29,11,00,23.60
2015,06,29,11,01,23.60
2015,06,29,11,02,23.60
2015,06,29,11,03,23.60
2015,06,29,11,04,23.60
2015,06,29,11,05,23.60
2015,06,29,11,06,23.60
2015,06,29,11,07,23.70
2015,06,29,11,08,23.80
2015,06,29,11,09,23.80
2015,06,29,11,10,23.70
2015,06,29,11,11,23.70
2015,06,29,11,12,23.70
2015,06,29,11,13,23.70
2015,06,29,11,14,23.60
2015,06,29,11,15,23.50
2015,06,29,11,16,23.40
2015,06,29,11,17,23.30
2015,06,29,11,18,23.30
2015,06,29,11,19,23.30
2015,06,29,11,20,23.30
2015,06,29,11,21,23.30
2015,06,29,11,22,23.30
2015,06,29,11,23,23.30
2015,06,29,11,24,23.30
2015,06,29,11,25,23.30
2015,06,29,11,26,23.40
2015,06,29,11,27,23.50
2015,06,29,11,28,23.60
2015,06,29,11,29,23.60
2015,06,29,11,30,23.60
2015,06,29,11,31,23.60
2015,06,29,11,32,23.70
2015,06,29,11,33,23.70
2015,06,29,11,34,23.70
2015,06,29,11,35,23.70
2015,06,29,11,36,23.60
2015,06,29,11,37,23.60
2015,06,29,11,38,23.60
2015,06,29,11,39,23.60
2015,06,29,11,40,23.60
2015,06,29,11,41,23.60
2015,06,29,11,42,23.70
2015,06,29,11,43,23.70
2015,06,29,11,44,23.70
2015,06,29,11,45,23.70
2015,06,29,11,46,23.80
2015,06,29,11,47,23.80
2015,06,29,11,48,23.90
2015,06,29,11,49,24.00
2015,06,29,11,50,24.00
2015,06,29,11,51,24.00
2015,06,29,11,52,24.00
2015,06,29,11,53,24.00
2015,06,29,11,54,24.00
2015,06,29,11,55,24.00
2015,06,29,11,56,23.90
2015,06,29,11,57,23.80
2015,06,29,11,58,23.80
2015,06,29,11,59,23.90
2015,06,29,12,00,24.00
2015,06,29,12,01,24.10
2015,06,29,12,02,24.20
2015,06,29,12,03,24.30
2015,06,29,12,04,24.30
2015,06,29,12,05,24.30
2015,06,29,12,06,24.30
2015,06,29,12,07,24.30
2015,06,29,12,08,24.30
2015,06,29,12,09,24.30
2015,06,29,12,10,24.30
2015,06,29,12,11,24.30
2015,06,29,12,12,24.30
2015,06,29,12,13,24.20
2015,06,29,12,14,24.20
2015,06,29,12,15,24.20
2015,06,29,12,16,24.20
2015,06,29,12,17,24.20
2015,06,29,12,18,24.10
2015,06,29,12,19,24.10
2015,06,29,12,20,24.10
2015,06,29,12,21,24.10
2015,06,29,12,22,24.20
2015,06,29,12,23,24.20
2015,06,29,12,24,24.20
2015,06,29,12,25,24.10
2015,06,29,12,26,24.10
2015,06,29,12,27,24.10
2015,06,29,12,28,24.10
2015,06,29,12,29,24.10
2015,06,29,12,30,24.10
2015,06,29,12,31,24.00
2015,06,29,12,32,24.00
2015,06,29,12,33,23.90
2015,06,29,12,34,23.90
2015,06,29,12,35,24.00
2015,06,29,12,36,24.00
2015,06,29,12,37,24.00
2015,06,29,12,38,24.10
2015,06,29,12,39,24.20
2015,06,29,12,40,24.30
2015,06,29,12,41,24.40
2015,06,29,12,42,24.40
2015,06,29,12,43,24.50
2015,06,29,12,44,24.60
2015,06,29,12,45,24.70
2015,06,29,12,46,24.80
2015,06,29,12,47,24.90
2015,06,29,12,48,25.00
2015,06,29,12,49,25.10
2015,06,29,12,50,25.20
2015,06,29,12,51,25.20
2015,06,29,12,52,25.20
2015,06,29,12,53,25.30
2015,06,29,12,54,25.30
2015,06,29,12,55,25.30
2015,06,29,12,56,25.20
2015,06,29,12,57,25.10
2015,06,29,12,58,25.00
2015,06,29,12,59,24.90
2015,06,29,13,00,24.80
2015,06,29,13,01,24.70
2015,06,29,13,02,24.70
2015,06,29,13,03,24.70
2015,06,29,13,04,24.80
2015,06,29,13,05,24.90
2015,06,29,13,06,24.90
2015,06,29,13,07,25.00
2015,06,29,13,08,25.10
2015,06,29,13,09,25.20
2015,06,29,13,10,25.30
2015,06,29,13,11,25.30
2015,06,29,13,12,25.40
2015,06,29,13,13,25.40
2015,06,29,13,14,25.40
2015,06,29,13,15,25.40
2015,06,29,13,16,25.40
2015,06,29,13,17,25.40
2015,06,29,13,18,25.30
2015,06,29,13,19,25.10
2015,06,29,13,20,24.90
2015,06,29,13,21,24.80
2015,06,29,13,22,24.70
2015,06,29,13,23,24.60
2015,06,29,13,24,24.60
2015,06,29,13,25,24.70
2015,06,29,13,26,24.70
2015,06,29,13,27,24.80
2015,06,29,13,28,24.90
2015,06,29,13,29,25.00
2015,06,29,13,30,25.00
2015,06,29,13,31,25.10
2015,06,29,13,32,25.10
2015,06,29,13,33,25.10
2015,06,29,13,34,25.10
2015,06,29,13,35,25.10
2015,06,29,13,36,25.10
2015,06,29,13,37,25.10
2015,06,29,13,38,25.10
2015,06,29,13,39,25.00
2015,06,29,13,40,25.00
2015,06,29,13,41,25.00
2015,06,29,13,42,24.90
2015,06,29,13,43,24.90
2015,06,29,13,44,24.90
2015,06,29,13,45,25.00
2015,06,29,13,46,25.00
2015,06,29,13,47,25.10
2015,06,29,13,48,25.10
2015,06,29,13,49,25.20
2015,06,29,13,50,25.30
2015,06,29,13,51,25.30
2015,06,29,13,52,25.30
2015,06,29,13,53,25.30
2015,06,29,13,54,25.20
2015,06,29,13,55,25.10
2015,06,29,13,56,25.10
2015,06,29,13,57,25.00
2015,06,29,13,58,25.00
2015,06,29,13,59,25.00
2015,06,29,14,00,25.10
2015,06,29,14,01,25.10
2015,06,29,14,02,25.20
2015,06,29,14,03,25.30
2015,06,29,14,04,25.50
2015,06,29,14,05,25.60
2015,06,29,14,06,25.70
2015,06,29,14,07,25.80
2015,06,29,14,08,25.90
2015,06,29,14,09,26.00
2015,06,29,14,10,26.00
2015,06,29,14,11,26.20
2015,06,29,14,12,26.30
2015,06,29,14,13,26.40
2015,06,29,14,14,26.50
2015,06,29,14,15,26.60
2015,06,29,14,16,26.70
2015,06,29,14,17,26.80
2015,06,29,14,18,26.80
2015,06,29,14,19,26.90
2015,06,29,14,20,27.00
2015,06,29,14,21,27.20
2015,06,29,14,22,27.30
2015,06,29,14,23,27.50
2015,06,29,14,24,27.60
2015,06,29,14,25,27.60
2015,06,29,14,26,27.70
2015,06,29,14,27,27.70
2015,06,29,14,28,27.70
2015,06,29,14,29,27.80
2015,06,29,14,30,27.80
2015,06,29,14,31,27.80
2015,06,29,14,32,27.70
2015,06,29,14,33,27.70
2015,06,29,14,34,27.70
2015,06,29,14,35,27.70
2015,06,29,14,36,27.70
2015,06,29,14,37,27.70
2015,06,29,14,38,27.60
2015,06,29,14,39,27.60
2015,06,29,14,40,27.50
2015,06,29,14,41,27.50
2015,06,29,14,42,27.50
2015,06,29,14,43,27.60
2015,06,29,14,44,27.50
2015,06,29,14,45,27.50
2015,06,29,14,46,27.50
2015,06,29,14,47,27.50
2015,06,29,14,48,27.40
2015,06,29,14,49,27.50
2015,06,29,14,50,27.50
2015,06,29,14,51,27.50
2015,06,29,14,52,27.60
2015,06,29,14,53,27.70
2015,06,29,14,54,27.80
2015,06,29,14,55,27.80
2015,06,29,14,56,27.90
2015,06,29,14,57,28.00
2015,06,29,14,58,28.10
2015,06,29,14,59,28.20
2015,06,29,15,00,28.20
2015,06,29,15,01,28.20
2015,06,29,15,02,28.10
2015,06,29,15,03,28.10
2015,06,29,15,04,28.20
2015,06,29,15,05,28.30
2015,06,29,15,06,28.30
2015,06,29,15,07,28.30
2015,06,29,15,08,28.40
2015,06,29,15,09,28.40
2015,06,29,15,10,28.40
2015,06,29,15,11,28.50
2015,06,29,15,12,28.50
2015,06,29,15,13,28.60
2015,06,29,15,14,28.70
2015,06,29,15,15,28.90
2015,06,29,15,16,29.00
2015,06,29,15,17,29.10
2015,06,29,15,18,29.10
2015,06,29,15,19,29.10
2015,06,29,15,20,29.10
2015,06,29,15,21,29.10
2015,06,29,15,22,29.10
2015,06,29,15,23,29.00
2015,06,29,15,24,28.90
2015,06,29,15,25,29.00
2015,06,29,15,26,29.00
2015,06,29,15,27,29.00
2015,06,29,15,28,29.00
2015,06,29,15,29,28.90
2015,06,29,15,30,28.80
2015,06,29,15,31,28.80
2015,06,29,15,32,28.80
2015,06,29,15,33,28.80
2015,06,29,15,34,28.80
2015,06,29,15,35,28.80
2015,06,29,15,36,28.80
2015,06,29,15,37,28.80
2015,06,29,15,38,28.90
2015,06,29,15,39,29.00
2015,06,29,15,40,29.00
2015,06,29,15,41,29.10
2015,06,29,15,42,29.20
2015,06,29,15,43,29.20
2015,06,29,15,44,29.20
2015,06,29,15,45,29.30
2015,06,29,15,46,29.30
2015,06,29,15,47,29.40
2015,06,29,15,48,29.40
2015,06,29,15,49,29.40
2015,06,29,15,50,29.40
2015,06,29,15,51,29.40
2015,06,29,15,52,29.40
2015,06,29,15,53,29.40
2015,06,29,15,54,29.40
2015,06,29,15,55,29.40
2015,06,29,15,56,29.50
2015,06,29,15,57,29.50
2015,06,29,15,58,29.50
2015,06,29,15,59,29.50
2015,06,29,16,00,29.60
2015,06,29,16,01,29.50
2015,06,29,16,02,29.50
2015,06,29,16,03,29.60
2015,06,29,16,04,29.60
2015,06,29,16,05,29.60
2015,06,29,16,06,29.60
2015,06,29,16,07,29.60
2015,06,29,16,08,29.60
2015,06,29,16,09,29.60
2015,06,29,16,10,29.60
2015,06,29,16,11,29.50
2015,06,29,16,12,29.40
2015,06,29,16,13,29.40
2015,06,29,16,14,29.30
2015,06,29,16,15,29.10
2015,06,29,16,16,29.00
2015,06,29,16,17,28.90
2015,06,29,16,18,28.80
2015,06,29,16,19,28.80
2015,06,29,16,20,28.70
2015,06,29,16,21,28.60
2015,06,29,16,22,28.50
2015,06,29,16,23,28.40
2015,06,29,16,24,28.40
2015,06,29,16,25,28.40
2015,06,29,16,26,28.40
2015,06,29,16,27,28.40
2015,06,29,16,28,28.50
2015,06,29,16,29,28.60
2015,06,29,16,30,28.70
2015,06,29,16,31,28.80
2015,06,29,16,32,28.80
2015,06,29,16,33,28.90
2015,06,29,16,34,28.90
2015,06,29,16,35,29.00
2015,06,29,16,36,29.10
2015,06,29,16,37,29.10
2015,06,29,16,38,29.10
2015,06,29,16,39,29.10
2015,06,29,16,40,29.10
2015,06,29,16,41,29.00
2015,06,29,16,42,28.90
2015,06,29,16,43,28.80
2015,06,29,16,44,28.70
2015,06,29,16,45,28.60
2015,06,29,16,46,28.60
2015,06,29,16,47,28.50
2015,06,29,16,48,28.50
2015,06,29,16,49,28.50
2015,06,29,16,50,28.50
2015,06,29,16,51,28.60
2015,06,29,16,52,28.60
2015,06,29,16,53,28.60
2015,06,29,16,54,28.60
2015,06,29,16,55,28.60
2015,06,29,16,56,28.60
2015,06,29,16,57,28.60
2015,06,29,16,58,28.50
2015,06,29,16,59,28.50
2015,06,29,17,00,28.40
2015,06,29,17,01,28.30
2015,06,29,17,02,28.20
2015,06,29,17,03,28.20
2015,06,29,17,04,28.10
2015,06,29,17,05,28.10
2015,06,29,17,06,28.20
2015,06,29,17,07,28.20
2015,06,29,17,08,28.20
2015,06,29,17,09,28.30
2015,06,29,17,10,28.30
2015,06,29,17,11,28.40
2015,06,29,17,12,28.40
2015,06,29,17,13,28.50
2015,06,29,17,14,28.50
2015,06,29,17,15,28.60
2015,06,29,17,16,28.70
2015,06,29,17,17,28.80
2015,06,29,17,18,28.80
2015,06,29,17,19,28.90